Total_Precipitation_Accumulation
0.03 0.08 0.24 0.29 0.30 0.27 0.24 0.23 0.21 0.19 0.20 0.23 0.26 0.28 0.29 0.27 0.25 0.22 0.23 0.22 0.23 0.25 0.28 0.33 0.35 0.34 0.31 0.29 0.25 0.18 0.13 0.11 0.11 0.10 0.09 0.11 0.13 0.13 0.12 0.13 0.15 0.18 0.22
0.02 0.09 0.23 0.27 0.30 0.28 0.26 0.25 0.22 0.20 0.21 0.27 0.33 0.34 0.30 0.26 0.25 0.24 0.20 0.20 0.21 0.24 0.31 0.35 0.29 0.23 0.17 0.13 0.10 0.09 0.08 0.07 0.05 0.02 0.01 0.02 0.05 0.07 0.07 0.08 0.10 0.14 0.15
0.02 0.09 0.23 0.28 0.29 0.28 0.26 0.22 0.20 0.20 0.24 0.31 0.38 0.37 0.31 0.24 0.22 0.22 0.19 0.19 0.21 0.24 0.26 0.27 0.21 0.17 0.13 0.12 0.08 0.05 0.04 0.04 0.03 0.01 0.01 0.02 0.03 0.05 0.05 0.05 0.08 0.10 0.12
0.04 0.09 0.19 0.29 0.30 0.28 0.27 0.25 0.25 0.25 0.28 0.33 0.39 0.38 0.34 0.29 0.28 0.26 0.23 0.19 0.17 0.17 0.17 0.19 0.16 0.12 0.10 0.08 0.06 0.04 0.03 0.03 0.02 0.02 0.03 0.03 0.03 0.05 0.06 0.06 0.09 0.11 0.13
0.09 0.12 0.21 0.29 0.32 0.30 0.29 0.25 0.28 0.30 0.32 0.36 0.40 0.39 0.33 0.31 0.31 0.28 0.25 0.19 0.16 0.15 0.15 0.15 0.14 0.10 0.06 0.05 0.04 0.04 0.04 0.03 0.02 0.02 0.03 0.03 0.04 0.07 0.10 0.10 0.14 0.15 0.14
0.15 0.22 0.30 0.33 0.34 0.35 0.34 0.30 0.30 0.32 0.37 0.40 0.43 0.42 0.35 0.34 0.35 0.31 0.25 0.17 0.14 0.13 0.14 0.14 0.15 0.11 0.08 0.05 0.04 0.04 0.04 0.04 0.02 0.02 0.02 0.03 0.04 0.07 0.09 0.11 0.16 0.17 0.17
0.20 0.30 0.40 0.43 0.43 0.41 0.41 0.43 0.39 0.40 0.44 0.48 0.50 0.47 0.42 0.39 0.38 0.33 0.26 0.16 0.13 0.12 0.14 0.13 0.14 0.13 0.11 0.08 0.06 0.05 0.05 0.03 0.02 0.02 0.02 0.03 0.04 0.08 0.10 0.13 0.17 0.19 0.19
0.41 0.50 0.57 0.58 0.53 0.48 0.45 0.46 0.44 0.46 0.52 0.54 0.52 0.52 0.50 0.45 0.43 0.39 0.30 0.19 0.16 0.16 0.18 0.16 0.16 0.14 0.12 0.11 0.09 0.07 0.05 0.03 0.02 0.01 0.02 0.02 0.04 0.10 0.12 0.13 0.16 0.17 0.17
0.79 0.84 0.80 0.74 0.64 0.59 0.52 0.48 0.45 0.46 0.51 0.56 0.57 0.55 0.51 0.49 0.47 0.43 0.34 0.25 0.21 0.21 0.21 0.18 0.16 0.14 0.14 0.12 0.11 0.08 0.05 0.04 0.02 0.02 0.02 0.02 0.05 0.12 0.17 0.18 0.21 0.21 0.19
1.14 1.18 1.09 0.96 0.82 0.73 0.64 0.52 0.47 0.47 0.48 0.51 0.52 0.49 0.43 0.40 0.41 0.39 0.30 0.26 0.24 0.24 0.22 0.17 0.15 0.16 0.13 0.12 0.12 0.09 0.06 0.05 0.03 0.02 0.03 0.04 0.10 0.19 0.22 0.24 0.26 0.26 0.23
1.40 1.41 1.39 1.22 1.01 0.86 0.74 0.56 0.50 0.48 0.48 0.47 0.47 0.40 0.40 0.40 0.39 0.34 0.25 0.19 0.20 0.22 0.21 0.20 0.17 0.16 0.14 0.12 0.12 0.11 0.09 0.06 0.04 0.03 0.04 0.07 0.14 0.20 0.21 0.22 0.22 0.20 0.19
1.54 1.51 1.52 1.42 1.23 1.03 0.87 0.71 0.63 0.53 0.51 0.45 0.39 0.38 0.34 0.36 0.40 0.35 0.31 0.25 0.21 0.21 0.20 0.21 0.20 0.19 0.17 0.14 0.13 0.11 0.10 0.09 0.07 0.06 0.05 0.06 0.10 0.16 0.18 0.17 0.16 0.16 0.16
1.72 1.69 1.69 1.63 1.43 1.22 0.99 0.79 0.69 0.60 0.57 0.51 0.40 0.37 0.36 0.39 0.41 0.44 0.43 0.38 0.33 0.24 0.23 0.23 0.23 0.18 0.16 0.16 0.16 0.13 0.11 0.11 0.10 0.08 0.06 0.05 0.08 0.15 0.20 0.20 0.18 0.18 0.18
1.85 1.76 1.77 1.73 1.59 1.43 1.17 0.92 0.73 0.61 0.57 0.53 0.47 0.43 0.45 0.44 0.41 0.41 0.40 0.38 0.37 0.28 0.26 0.24 0.19 0.16 0.16 0.16 0.17 0.18 0.17 0.17 0.15 0.14 0.11 0.08 0.07 0.11 0.18 0.22 0.25 0.26 0.26
1.81 1.81 1.79 1.70 1.60 1.53 1.41 1.13 0.86 0.70 0.62 0.60 0.57 0.52 0.50 0.50 0.46 0.47 0.43 0.40 0.35 0.33 0.30 0.27 0.24 0.21 0.19 0.18 0.18 0.18 0.20 0.19 0.18 0.19 0.17 0.12 0.09 0.10 0.14 0.20 0.28 0.34 0.37
1.62 1.75 1.79 1.69 1.56 1.47 1.43 1.33 1.08 0.85 0.71 0.69 0.66 0.58 0.57 0.57 0.54 0.52 0.50 0.48 0.43 0.40 0.37 0.36 0.33 0.32 0.28 0.25 0.21 0.19 0.18 0.18 0.17 0.16 0.16 0.16 0.15 0.12 0.12 0.18 0.27 0.37 0.46
1.39 1.58 1.73 1.76 1.67 1.53 1.45 1.45 1.32 1.13 0.89 0.72 0.69 0.68 0.62 0.60 0.60 0.60 0.59 0.53 0.48 0.49 0.50 0.51 0.49 0.47 0.39 0.34 0.28 0.27 0.26 0.25 0.23 0.21 0.19 0.17 0.19 0.18 0.17 0.19 0.27 0.37 0.49
1.25 1.40 1.56 1.64 1.67 1.63 1.52 1.50 1.47 1.33 1.15 0.94 0.76 0.69 0.66 0.62 0.66 0.69 0.69 0.64 0.60 0.61 0.61 0.60 0.57 0.57 0.48 0.42 0.38 0.36 0.35 0.33 0.31 0.30 0.29 0.26 0.24 0.21 0.21 0.22 0.27 0.35 0.46
1.15 1.28 1.45 1.49 1.56 1.65 1.74 1.70 1.58 1.47 1.30 1.14 0.97 0.79 0.72 0.73 0.72 0.70 0.68 0.67 0.71 0.68 0.66 0.66 0.61 0.58 0.52 0.49 0.49 0.44 0.40 0.38 0.35 0.35 0.35 0.35 0.35 0.33 0.30 0.30 0.27 0.26 0.33
1.16 1.28 1.43 1.46 1.59 1.73 1.90 1.93 1.84 1.64 1.44 1.30 1.11 0.94 0.86 0.83 0.86 0.79 0.72 0.75 0.78 0.75 0.66 0.64 0.64 0.64 0.58 0.58 0.57 0.50 0.46 0.43 0.40 0.37 0.37 0.37 0.37 0.37 0.36 0.35 0.33 0.31 0.30
1.27 1.32 1.42 1.48 1.60 1.72 1.77 1.70 1.66 1.58 1.50 1.44 1.30 1.17 1.06 1.01 1.04 1.03 0.93 0.88 0.90 0.84 0.78 0.80 0.86 0.82 0.75 0.75 0.69 0.54 0.46 0.44 0.42 0.40 0.39 0.37 0.35 0.34 0.32 0.32 0.32 0.32 0.32
1.29 1.33 1.46 1.52 1.56 1.60 1.67 1.76 1.75 1.83 1.77 1.72 1.66 1.49 1.31 1.23 1.22 1.21 1.18 1.15 1.12 1.04 0.98 0.96 0.99 0.96 0.91 0.93 0.89 0.81 0.59 0.45 0.38 0.36 0.37 0.36 0.37 0.37 0.35 0.34 0.33 0.33 0.31
1.19 1.39 1.49 1.53 1.55 1.59 1.81 2.19 2.15 2.07 1.98 1.88 1.79 1.71 1.55 1.46 1.43 1.34 1.31 1.35 1.32 1.22 1.13 1.10 1.09 1.08 1.08 1.09 1.04 1.06 0.83 0.58 0.45 0.38 0.35 0.33 0.35 0.40 0.42 0.41 0.39 0.36 0.32
1.02 1.28 1.56 1.65 1.71 1.81 1.99 2.23 2.30 2.06 1.87 1.79 1.77 1.77 1.73 1.58 1.53 1.49 1.47 1.44 1.44 1.41 1.29 1.25 1.26 1.22 1.19 1.16 1.13 1.01 0.93 0.79 0.70 0.54 0.40 0.36 0.34 0.34 0.38 0.41 0.41 0.41 0.40
0.95 1.13 1.40 1.63 1.70 1.86 2.00 2.11 2.28 2.09 1.81 1.80 1.81 1.75 1.74 1.67 1.55 1.50 1.48 1.42 1.34 1.33 1.36 1.36 1.34 1.31 1.20 1.11 1.06 1.01 0.95 0.81 0.69 0.65 0.50 0.38 0.35 0.32 0.32 0.36 0.40 0.42 0.45
0.86 0.97 1.14 1.32 1.42 1.54 1.69 1.89 2.07 2.09 1.96 1.83 1.75 1.68 1.63 1.62 1.60 1.55 1.52 1.42 1.31 1.23 1.21 1.25 1.29 1.28 1.25 1.17 1.08 1.02 0.99 0.91 0.77 0.73 0.69 0.53 0.46 0.38 0.34 0.35 0.37 0.41 0.44